Flag for U.S.A. Weather past 2 weeks in Temple, Texas, U.S.A.

42 °F


Feels Like: 39 °F
Forecast: 43 / 56 °F
Wind: 5 mph from Northwest

Location: Fort Hood AAF Airport

Current Time: Nov 30, 2015 at 1:05:57 AM

Latest Report: Nov 29, 2015 at 11:58 PM

Visibility: 2 mi

Pressure: 30.07 "Hg

Humidity: 100%

Dew point: 42 °F

Location of TempleLocation

Historic Weather in Temple — Graph


Temple temperature yesterday

Maximum temperature yesterday: 43 °F (at 9:03 PM)
Minimum temperature yesterday: 38 °F (at 5:58 AM)
Average temperature yesterday: 40 °F

Past Weeks' High & Low Weather Summary

High74 °F (Nov 20, 1:58 PM)100% (Nov 14, 10:58 PM)30.36 "Hg (Nov 14, 10:58 PM)
Low30 °F (Nov 22, 4:58 AM)26% (Nov 18, 2:58 PM)29.51 "Hg (Nov 17, 2:58 AM)
Average55 °F79%30.06 "Hg
* Reported Nov 14 10:58 PM — Nov 29 10:58 PM, Temple, Weather by CustomWeather, © 2015

Note: Actual official high and low records may vary slightly from our data, if they occured in-between our weather recording intervals... More about our weather records


Temple weather history for previous 24 hours

Time TempWeatherWind HumidityBarometerVisibility
10:58 PM
Sun, Nov 29
42 °FFog.6 mph100%30.09 "Hg2 mi
10:03 PM43 °FFog.5 mph100%30.09 "Hg3 mi
9:03 PM43 °FFog.6 mph100%30.10 "Hg2 mi
7:58 PM42 °FFog.7 mph100%30.12 "Hg1 mi
6:58 PM42 °FFog.5 mph99%30.11 "Hg4 mi
5:58 PM42 °FFog.8 mph100%30.10 "Hg6 mi
4:58 PM42 °FLow clouds.8 mph98%30.10 "Hg10 mi
3:58 PM42 °FFog.8 mph98%30.09 "Hg5 mi
3:03 PM41 °FLight rain. Fog.8 mph100%30.09 "Hg1 mi
2:03 PM41 °FLight rain. Fog.5 mph100%30.10 "Hg1 mi
1:58 PM41 °FLight rain. Fog.6 mph98%30.12 "Hg1 mi
12:58 PM39 °FLight rain. Fog.7 mph100%30.15 "Hg2 mi
11:58 AM40 °FLight rain. Fog.6 mph99%30.16 "Hg1 mi
11:03 AM41 °FFog.9 mph100%30.20 "Hg1 mi
10:58 AM40 °FFog.8 mph99%30.21 "Hg1 mi
9:58 AM40 °FLight rain. Fog.8 mph98%30.23 "Hg0 mi
9:03 AM39 °FLight rain. Fog.7 mph100%30.20 "Hg1 mi
8:58 AM39 °FLight rain. Fog.8 mph100%30.20 "Hg1 mi
7:58 AM39 °FFog.7 mph99%30.19 "Hg2 mi
6:58 AM39 °FLow clouds.3 mph98%30.19 "Hg10 mi
5:58 AM38 °FFog.10 mph100%30.16 "Hg6 mi
4:58 AM39 °FFog.10 mph100%30.15 "Hg1 mi
4:03 AM39 °FFog.12 mph100%30.17 "Hg1 mi
2:59 AM39 °FLight rain. Fog.10 mph100%30.18 "Hg1 mi
2:03 AM41 °FFog.12 mph93%30.19 "Hg2 mi
Weather by CustomWeather, © 2015

See weather overviewHow to use our weather pages